| time (UTC) | temp F | wind direction | speed MPH | gust MPH | rain 1hr in | rain 24hr in | rain mn in | humidity % | barometer mb |
| 20260901163051 | 88 | 138 | 6.0 | 11.0 | 0.00 | 0.00 | 0.00 | 51 | 1013.9 |
| 20260901162553 | 88 | 139 | 5.0 | 11.0 | 0.00 | 0.00 | 0.00 | 54 | 1014.0 |
| 20260901162050 | 87 | 175 | 4.0 | 12.0 | 0.00 | 0.00 | 0.00 | 55 | 1014.0 |
| 20260901161550 | 87 | 163 | 5.0 | 10.0 | 0.00 | 0.00 | 0.00 | 55 | 1013.9 |
| 20260901161049 | 87 | 136 | 6.0 | 9.0 | 0.00 | 0.00 | 0.00 | 56 | 1014.0 |
| 20260901160547 | 87 | 132 | 4.0 | 8.0 | 0.00 | 0.00 | 0.00 | 57 | 1014.0 |
| 20260901160047 | 87 | 139 | 3.0 | 9.0 | 0.00 | 0.00 | 0.00 | 58 | 1014.0 |
| 20260901155545 | 86 | 119 | 6.0 | 9.0 | 0.00 | 0.00 | 0.00 | 58 | 1013.8 |
| 20260901155045 | 86 | 161 | 5.0 | 9.0 | 0.00 | 0.00 | 0.00 | 59 | 1013.8 |
| 20260901154544 | 86 | 115 | 3.0 | 9.0 | 0.00 | 0.00 | 0.00 | 59 | 1013.9 |
| 20260901154043 | 86 | 148 | 3.0 | 5.0 | 0.00 | 0.00 | 0.00 | 60 | 1013.8 |
| 20260901153545 | 85 | 148 | 2.0 | 7.0 | 0.00 | 0.00 | 0.00 | 61 | 1013.8 |
| 20260901153051 | 85 | 78 | 1.0 | 6.0 | 0.00 | 0.00 | 0.00 | 61 | 1013.8 |
| 20260901152539 | 84 | 136 | 3.0 | 6.0 | 0.00 | 0.00 | 0.00 | 64 | 1013.7 |
| 20260901152038 | 84 | 155 | 2.0 | 7.0 | 0.00 | 0.00 | 0.00 | 65 | 1013.8 |
| 20260901151537 | 83 | 100 | 4.0 | 8.0 | 0.00 | 0.00 | 0.00 | 65 | 1013.7 |
| 20260901151038 | 83 | 159 | 4.0 | 8.0 | 0.00 | 0.00 | 0.00 | 66 | 1013.7 |
| 20260901150537 | 82 | 157 | 2.0 | 7.0 | 0.00 | 0.00 | 0.00 | 67 | 1013.7 |
| 20260901150035 | 82 | 193 | 3.0 | 8.0 | 0.00 | 0.00 | 0.00 | 67 | 1013.7 |
| 20260901145533 | 81 | 188 | 5.0 | 9.0 | 0.00 | 0.00 | 0.00 | 68 | 1013.7 |
| 20260901145032 | 81 | 178 | 5.0 | 9.0 | 0.00 | 0.00 | 0.00 | 70 | 1013.7 |
| 20260901144533 | 80 | 183 | 4.0 | 7.0 | 0.00 | 0.00 | 0.00 | 72 | 1013.7 |
| 20260901144029 | 80 | 205 | 3.0 | 7.0 | 0.00 | 0.00 | 0.00 | 73 | 1013.7 |
| 20260901143528 | 79 | 196 | 3.0 | 7.0 | 0.00 | 0.00 | 0.00 | 79 | 1013.7 |
| 20260901143033 | 79 | 172 | 3.0 | 8.0 | 0.00 | 0.00 | 0.00 | 79 | 1013.7 |
| 20260901142533 | 78 | 188 | 5.0 | 8.0 | 0.00 | 0.00 | 0.00 | 79 | 1013.8 |
| 20260901142028 | 77 | 184 | 4.0 | 7.0 | 0.00 | 0.00 | 0.00 | 80 | 1013.9 |
| 20260901141535 | 77 | 222 | 2.0 | 5.0 | 0.00 | 0.00 | 0.00 | 81 | 1013.9 |
| 20260901141028 | 77 | 169 | 2.0 | 5.0 | 0.00 | 0.00 | 0.00 | 83 | 1013.7 |
| 20260901140527 | 76 | 197 | 3.0 | 6.0 | 0.00 | 0.00 | 0.00 | 84 | 1013.7 |
| 20260901140027 | 76 | 163 | 2.0 | 6.0 | 0.00 | 0.00 | 0.00 | 84 | 1013.7 |
| 20260901135527 | 75 | 207 | 2.0 | 5.0 | 0.00 | 0.00 | 0.00 | 88 | 1013.7 |
| 20260901135027 | 75 | 153 | 3.0 | 6.0 | 0.00 | 0.00 | 0.00 | 91 | 1013.8 |
| 20260901134526 | 74 | 146 | 4.0 | 7.0 | 0.00 | 0.00 | 0.00 | 92 | 1013.8 |
| 20260901134027 | 74 | 121 | 4.0 | 8.0 | 0.00 | 0.00 | 0.00 | 93 | 1013.8 |
| 20260901133525 | 73 | 119 | 4.0 | 8.0 | 0.00 | 0.00 | 0.00 | 94 | 1013.8 |
| 20260901133025 | 73 | 139 | 3.0 | 7.0 | 0.00 | 0.00 | 0.00 | 95 | 1013.8 |
| 20260901132525 | 73 | 151 | 3.0 | 7.0 | 0.00 | 0.00 | 0.00 | 96 | 1013.7 |
| 20260901132024 | 72 | 114 | 3.0 | 6.0 | 0.00 | 0.00 | 0.00 | 96 | 1013.8 |
| 20260901131524 | 72 | 98 | 3.0 | 5.0 | 0.00 | 0.00 | 0.00 | 96 | 1013.7 |
| 20260901131023 | 72 | 90 | 2.0 | 6.0 | 0.00 | 0.00 | 0.00 | 96 | 1013.6 |
| 20260901130524 | 71 | 104 | 3.0 | 6.0 | 0.00 | 0.00 | 0.00 | 96 | 1013.5 |
| 20260901130022 | 71 | 112 | 2.0 | 6.0 | 0.00 | 0.00 | 0.00 | 96 | 1013.5 |
| 20260901125520 | 71 | 108 | 2.0 | 6.0 | 0.00 | 0.00 | 0.00 | 96 | 1013.3 |
| 20260901125021 | 71 | 125 | 3.0 | 4.0 | 0.00 | 0.00 | 0.00 | 96 | 1013.2 |
| 20260901124521 | 71 | 137 | 2.0 | 4.0 | 0.00 | 0.00 | 0.00 | 96 | 1013.3 |
| 20260901124020 | 71 | 129 | 2.0 | 3.0 | 0.00 | 0.00 | 0.00 | 96 | 1013.2 |
| 20260901123524 | 71 | 166 | 2.0 | 5.0 | 0.00 | 0.00 | 0.00 | 96 | 1013.2 |
| 20260901123022 | 71 | 155 | 3.0 | 6.0 | 0.00 | 0.00 | 0.00 | 96 | 1013.0 |
| 20260901122520 | 71 | 178 | 4.0 | 5.0 | 0.00 | 0.00 | 0.00 | 96 | 1013.0 |
| 20260901122019 | 71 | 189 | 3.0 | 5.0 | 0.00 | 0.00 | 0.00 | 95 | 1013.1 |
| 20260901121519 | 71 | 167 | 2.0 | 4.0 | 0.00 | 0.00 | 0.00 | 95 | 1013.1 |
| 20260901121019 | 71 | 161 | 2.0 | 4.0 | 0.00 | 0.00 | 0.00 | 95 | 1013.1 |
| 20260901120519 | 71 | 154 | 2.0 | 3.0 | 0.00 | 0.00 | 0.00 | 95 | 1013.1 |
| 20260901120018 | 71 | 146 | 1.0 | 5.0 | 0.00 | 0.00 | 0.00 | 95 | 1013.1 |
| 20260901115517 | 71 | 165 | 2.0 | 5.0 | 0.00 | 0.00 | 0.00 | 95 | 1013.0 |
| 20260901115020 | 71 | 179 | 2.0 | 4.0 | 0.00 | 0.00 | 0.00 | 94 | 1013.0 |
| 20260901114519 | 71 | 175 | 1.0 | 5.0 | 0.00 | 0.00 | 0.00 | 94 | 1013.0 |
| 20260901114016 | 71 | 162 | 1.0 | 7.0 | 0.00 | 0.00 | 0.00 | 94 | 1013.1 |
| 20260901113516 | 71 | 152 | 2.0 | 7.0 | 0.00 | 0.00 | 0.00 | 94 | 1013.0 |
| 20260901113016 | 71 | 136 | 2.0 | 4.0 | 0.00 | 0.00 | 0.00 | 94 | 1013.0 |
| 20260901112518 | 72 | 141 | 1.0 | 4.0 | 0.00 | 0.00 | 0.00 | 94 | 1013.1 |
| 20260901112015 | 72 | 160 | 2.0 | 4.0 | 0.00 | 0.00 | 0.00 | 94 | 1013.1 |
| 20260901111515 | 72 | 121 | 2.0 | 4.0 | 0.00 | 0.00 | 0.00 | 94 | 1013.2 |
| 20260901111013 | 72 | 146 | 2.0 | 4.0 | 0.00 | 0.00 | 0.00 | 94 | 1013.1 |
| 20260901110513 | 72 | 136 | 2.0 | 5.0 | 0.00 | 0.00 | 0.00 | 94 | 1013.1 |
| 20260901110013 | 72 | 154 | 3.0 | 7.0 | 0.00 | 0.00 | 0.00 | 94 | 1013.1 |
| 20260901105511 | 72 | 161 | 4.0 | 7.0 | 0.00 | 0.00 | 0.00 | 93 | 1013.1 |
| 20260901105015 | 72 | 173 | 2.0 | 7.0 | 0.00 | 0.00 | 0.00 | 93 | 1013.1 |
| 20260901104512 | 72 | 159 | 3.0 | 5.0 | 0.00 | 0.00 | 0.00 | 93 | 1013.1 |
| 20260901104011 | 72 | 182 | 3.0 | 6.0 | 0.00 | 0.00 | 0.00 | 93 | 1013.0 |
| 20260901103512 | 72 | 153 | 2.0 | 5.0 | 0.00 | 0.00 | 0.00 | 93 | 1013.0 |
| 20260901103010 | 72 | 162 | 1.0 | 8.0 | 0.00 | 0.00 | 0.00 | 92 | 1013.0 |
| 20260901102514 | 73 | 162 | 4.0 | 8.0 | 0.00 | 0.00 | 0.00 | 92 | 1013.0 |
| 20260901102009 | 73 | 165 | 2.0 | 8.0 | 0.00 | 0.00 | 0.00 | 92 | 1013.1 |
| 20260901101509 | 73 | 160 | 3.0 | 9.0 | 0.00 | 0.00 | 0.00 | 92 | 1013.1 |
| 20260901101008 | 73 | 169 | 6.0 | 9.0 | 0.00 | 0.00 | 0.00 | 92 | 1013.1 |
| 20260901100507 | 73 | 182 | 4.0 | 8.0 | 0.00 | 0.00 | 0.00 | 92 | 1013.1 |
| 20260901100006 | 73 | 140 | 4.0 | 9.0 | 0.00 | 0.00 | 0.00 | 91 | 1013.2 |
| 20260901095505 | 73 | 178 | 6.0 | 9.0 | 0.00 | 0.00 | 0.00 | 91 | 1013.1 |
| 20260901095005 | 73 | 165 | 6.0 | 10.0 | 0.00 | 0.00 | 0.00 | 91 | 1013.2 |
| 20260901094506 | 73 | 161 | 6.0 | 10.0 | 0.00 | 0.00 | 0.00 | 91 | 1013.2 |
| 20260901094004 | 73 | 180 | 5.0 | 11.0 | 0.00 | 0.00 | 0.00 | 90 | 1013.3 |
| 20260901093503 | 73 | 186 | 4.0 | 10.0 | 0.00 | 0.00 | 0.00 | 90 | 1013.3 |
| 20260901093003 | 73 | 184 | 6.0 | 10.0 | 0.00 | 0.00 | 0.00 | 90 | 1013.3 |
| 20260901092503 | 73 | 184 | 5.0 | 15.0 | 0.00 | 0.00 | 0.00 | 89 | 1013.2 |
| 20260901092005 | 74 | 160 | 6.0 | 15.0 | 0.00 | 0.00 | 0.00 | 89 | 1013.2 |
| 20260901091502 | 73 | 173 | 7.0 | 11.0 | 0.00 | 0.00 | 0.00 | 89 | 1013.2 |
| 20260901091002 | 73 | 171 | 7.0 | 11.0 | 0.00 | 0.00 | 0.00 | 88 | 1013.3 |
| 20260901090600 | 73 | 165 | 4.0 | 8.0 | 0.00 | 0.00 | 0.00 | 87 | 1013.3 |
| 20260901085559 | 74 | 134 | 3.0 | 7.0 | 0.00 | 0.00 | 0.00 | 86 | 1013.2 |
| 20260901085057 | 74 | 180 | 5.0 | 9.0 | 0.00 | 0.00 | 0.00 | 86 | 1013.2 |
| 20260901084558 | 74 | 177 | 5.0 | 10.0 | 0.00 | 0.00 | 0.00 | 86 | 1013.1 |
| 20260901084057 | 74 | 167 | 3.0 | 10.0 | 0.00 | 0.00 | 0.00 | 85 | 1013.2 |
| 20260901083556 | 74 | 165 | 4.0 | 10.0 | 0.00 | 0.00 | 0.00 | 85 | 1013.3 |
| 20260901083055 | 74 | 177 | 5.0 | 8.0 | 0.00 | 0.00 | 0.00 | 84 | 1013.2 |
| 20260901082555 | 74 | 178 | 3.0 | 7.0 | 0.00 | 0.00 | 0.00 | 84 | 1013.2 |
| 20260901082053 | 74 | 199 | 3.0 | 9.0 | 0.00 | 0.00 | 0.00 | 84 | 1013.2 |
| 20260901081554 | 75 | 199 | 5.0 | 9.0 | 0.00 | 0.00 | 0.00 | 83 | 1013.1 |
| 20260901081055 | 75 | 181 | 5.0 | 10.0 | 0.00 | 0.00 | 0.00 | 83 | 1013.1 |
| 20260901080551 | 75 | 176 | 5.0 | 9.0 | 0.00 | 0.00 | 0.00 | 82 | 1013.2 |
| 20260901080053 | 75 | 182 | 4.0 | 10.0 | 0.00 | 0.00 | 0.00 | 82 | 1013.3 |
| 20260901075550 | 75 | 191 | 7.0 | 10.0 | 0.00 | 0.00 | 0.00 | 82 | 1013.3 |
| 20260901075047 | 75 | 221 | 4.0 | 9.0 | 0.00 | 0.00 | 0.00 | 81 | 1013.2 |
| 20260901074600 | 75 | 171 | 5.0 | 9.0 | 0.00 | 0.00 | 0.00 | 81 | 1013.1 |
| 20260901074046 | 75 | 166 | 5.0 | 10.0 | 0.00 | 0.00 | 0.00 | 81 | 1013.1 |
| 20260901073545 | 75 | 189 | 4.0 | 14.0 | 0.00 | 0.00 | 0.00 | 80 | 1013.1 |
| 20260901073045 | 76 | 161 | 7.0 | 14.0 | 0.00 | 0.00 | 0.00 | 80 | 1013.2 |
| 20260901072548 | 76 | 173 | 6.0 | 12.0 | 0.00 | 0.00 | 0.00 | 80 | 1013.1 |
| 20260901072044 | 76 | 177 | 6.0 | 12.0 | 0.00 | 0.00 | 0.00 | 79 | 1013.1 |
| 20260901071543 | 76 | 196 | 6.0 | 15.0 | 0.00 | 0.00 | 0.00 | 79 | 1013.1 |
| 20260901071042 | 76 | 167 | 7.0 | 16.0 | 0.00 | 0.00 | 0.00 | 78 | 1013.2 |
| 20260901070542 | 76 | 172 | 7.0 | 17.0 | 0.00 | 0.00 | 0.00 | 78 | 1013.2 |
| 20260901070042 | 76 | 169 | 9.0 | 17.0 | 0.00 | 0.00 | 0.00 | 78 | 1013.1 |
| 20260901065543 | 77 | 163 | 9.0 | 15.0 | 0.00 | 0.00 | 0.00 | 78 | 1013.1 |
| 20260901065040 | 77 | 196 | 8.0 | 16.0 | 0.00 | 0.00 | 0.00 | 77 | 1013.1 |
| 20260901064541 | 77 | 169 | 10.0 | 19.0 | 0.00 | 0.00 | 0.00 | 77 | 1013.1 |
| 20260901064039 | 77 | 172 | 10.0 | 19.0 | 0.00 | 0.00 | 0.00 | 77 | 1013.1 |
| 20260901063538 | 77 | 153 | 9.0 | 14.0 | 0.00 | 0.00 | 0.00 | 77 | 1013.1 |
| 20260901063042 | 77 | 178 | 8.0 | 14.0 | 0.00 | 0.00 | 0.00 | 77 | 1013.2 |
| 20260901062535 | 77 | 163 | 6.0 | 14.0 | 0.00 | 0.00 | 0.00 | 77 | 1013.2 |
| 20260901062035 | 77 | 169 | 7.0 | 14.0 | 0.00 | 0.00 | 0.00 | 76 | 1013.1 |
| 20260901061534 | 78 | 165 | 6.0 | 11.0 | 0.00 | 0.00 | 0.00 | 76 | 1013.2 |
| 20260901061033 | 78 | 160 | 5.0 | 11.0 | 0.00 | 0.00 | 0.00 | 76 | 1013.1 |
| 20260901060532 | 78 | 169 | 6.0 | 11.0 | 0.00 | 0.00 | 0.00 | 75 | 1013.1 |
| 20260901060031 | 78 | 180 | 6.0 | 14.0 | 0.00 | 0.00 | 0.00 | 75 | 1013.1 |
| 20260901055529 | 78 | 142 | 6.0 | 14.0 | 0.00 | 0.00 | 0.00 | 74 | 1013.0 |
| 20260901055030 | 78 | 166 | 3.0 | 12.0 | 0.00 | 0.00 | 0.00 | 74 | 1012.9 |
| 20260901054533 | 78 | 168 | 9.0 | 12.0 | 0.00 | 0.00 | 0.00 | 74 | 1012.8 |
| 20260901054027 | 78 | 187 | 7.0 | 11.0 | 0.00 | 0.00 | 0.00 | 74 | 1012.9 |
| 20260901053526 | 79 | 172 | 5.0 | 10.0 | 0.00 | 0.00 | 0.00 | 74 | 1012.8 |
| 20260901053025 | 79 | 159 | 6.0 | 13.0 | 0.00 | 0.00 | 0.00 | 74 | 1012.7 |
| 20260901052523 | 79 | 180 | 4.0 | 13.0 | 0.00 | 0.00 | 0.00 | 74 | 1012.6 |
| 20260901052026 | 79 | 140 | 8.0 | 13.0 | 0.00 | 0.00 | 0.00 | 74 | 1012.5 |
| 20260901051522 | 79 | 144 | 7.0 | 14.0 | 0.00 | 0.00 | 0.00 | 73 | 1012.6 |
| 20260901051024 | 79 | 161 | 7.0 | 15.0 | 0.00 | 0.00 | 0.00 | 73 | 1012.5 |
| 20260901050521 | 80 | 177 | 8.0 | 16.0 | 0.00 | 0.00 | 0.00 | 72 | 1012.5 |
| 20260901050020 | 80 | 121 | 8.0 | 15.0 | 0.00 | 0.00 | 0.00 | 72 | 1012.5 |
| 20260901045518 | 80 | 134 | 8.0 | 14.0 | 0.00 | 0.00 | 0.00 | 71 | 1012.5 |
| 20260901045018 | 80 | 205 | 6.0 | 12.0 | 0.00 | 0.00 | 0.00 | 70 | 1012.7 |
| 20260901044519 | 80 | 153 | 6.0 | 15.0 | 0.00 | 0.00 | 0.00 | 70 | 1012.6 |
| 20260901044018 | 80 | 171 | 10.0 | 15.0 | 0.00 | 0.00 | 0.00 | 70 | 1012.6 |
| 20260901043518 | 81 | 151 | 8.0 | 18.0 | 0.00 | 0.00 | 0.00 | 69 | 1012.5 |
| 20260901043022 | 81 | 157 | 8.0 | 18.0 | 0.00 | 0.00 | 0.00 | 68 | 1012.6 |
| 20260901042517 | 81 | 166 | 8.0 | 20.0 | 0.00 | 0.00 | 0.00 | 67 | 1012.5 |
| 20260901042017 | 81 | 145 | 9.0 | 20.0 | 0.00 | 0.00 | 0.00 | 67 | 1012.5 |
| 20260901041517 | 81 | 102 | 10.0 | 18.0 | 0.00 | 0.00 | 0.00 | 65 | 1012.5 |
| 20260901041017 | 82 | 127 | 9.0 | 15.0 | 0.00 | 0.00 | 0.00 | 64 | 1012.5 |
| 20260901040517 | 82 | 169 | 8.0 | 15.0 | 0.00 | 0.00 | 0.00 | 63 | 1012.4 |
| 20260901040017 | 82 | 98 | 10.0 | 14.0 | 0.00 | 0.00 | 0.00 | 63 | 1012.4 |
| 20260901035518 | 82 | 146 | 7.0 | 18.0 | 0.00 | 0.00 | 0.00 | 62 | 1012.3 |
| 20260901035015 | 83 | 154 | 10.0 | 19.0 | 0.00 | 0.00 | 0.00 | 62 | 1012.2 |
| 20260901034526 | 83 | 150 | 12.0 | 19.0 | 0.00 | 0.00 | 0.00 | 61 | 1012.1 |
| 20260901034015 | 82 | 156 | 9.0 | 16.0 | 0.00 | 0.00 | 0.00 | 60 | 1012.1 |
| 20260901033515 | 82 | 121 | 9.0 | 16.0 | 0.00 | 0.00 | 0.00 | 60 | 1012.0 |
| 20260901033016 | 82 | 91 | 5.0 | 10.0 | 0.00 | 0.00 | 0.00 | 60 | 1011.9 |
| 20260901032515 | 82 | 99 | 4.0 | 7.0 | 0.00 | 0.00 | 0.00 | 59 | 1011.9 |
| 20260901032015 | 82 | 116 | 4.0 | 8.0 | 0.00 | 0.00 | 0.00 | 59 | 1011.7 |
| 20260901031524 | 82 | 109 | 3.0 | 8.0 | 0.00 | 0.00 | 0.00 | 59 | 1011.6 |
| 20260901031014 | 82 | 124 | 4.0 | 7.0 | 0.00 | 0.00 | 0.00 | 59 | 1011.6 |
| 20260901030514 | 82 | 105 | 4.0 | 7.0 | 0.00 | 0.00 | 0.00 | 59 | 1011.6 |
| 20260901030014 | 82 | 96 | 4.0 | 8.0 | 0.00 | 0.00 | 0.00 | 59 | 1011.6 |
| 20260901025517 | 82 | 125 | 4.0 | 8.0 | 0.00 | 0.00 | 0.00 | 59 | 1011.5 |
| 20260901025017 | 82 | 128 | 3.0 | 7.0 | 0.00 | 0.00 | 0.00 | 59 | 1011.5 |
| 20260901024514 | 82 | 115 | 3.0 | 7.0 | 0.00 | 0.00 | 0.00 | 59 | 1011.5 |
| 20260901024016 | 82 | 124 | 3.0 | 7.0 | 0.00 | 0.00 | 0.00 | 59 | 1011.4 |
| 20260901023513 | 83 | 111 | 3.0 | 7.0 | 0.00 | 0.00 | 0.00 | 59 | 1011.4 |
| 20260901023020 | 83 | 119 | 3.0 | 7.0 | 0.00 | 0.00 | 0.00 | 59 | 1011.2 |
| 20260901022517 | 83 | 130 | 2.0 | 7.0 | 0.00 | 0.00 | 0.00 | 59 | 1011.2 |
| 20260901022015 | 83 | 94 | 3.0 | 7.0 | 0.00 | 0.00 | 0.00 | 59 | 1011.2 |
| 20260901021513 | 83 | 101 | 3.0 | 7.0 | 0.00 | 0.00 | 0.00 | 59 | 1011.1 |
| 20260901021014 | 83 | 105 | 3.0 | 7.0 | 0.00 | 0.00 | 0.00 | 58 | 1011.1 |
| 20260901020515 | 84 | 96 | 3.0 | 7.0 | 0.00 | 0.00 | 0.00 | 58 | 1011.0 |
| 20260901020012 | 84 | 107 | 3.0 | 8.0 | 0.00 | 0.00 | 0.00 | 58 | 1011.0 |
| 20260901015611 | 84 | 109 | 3.0 | 8.0 | 0.00 | 0.00 | 0.00 | 58 | 1011.0 |
| 20260901015015 | 84 | 117 | 3.0 | 7.0 | 0.00 | 0.00 | 0.00 | 58 | 1011.0 |
| 20260901014511 | 84 | 121 | 3.0 | 7.0 | 0.00 | 0.00 | 0.00 | 57 | 1010.9 |
| 20260901014011 | 85 | 107 | 3.0 | 8.0 | 0.00 | 0.00 | 0.00 | 57 | 1010.8 |
| 20260901013511 | 85 | 115 | 3.0 | 10.0 | 0.00 | 0.00 | 0.00 | 57 | 1010.8 |
| 20260901013028 | 85 | 115 | 6.0 | 10.0 | 0.00 | 0.00 | 0.00 | 57 | 1010.8 |
| 20260901012510 | 85 | 118 | 3.0 | 9.0 | 0.00 | 0.00 | 0.00 | 56 | 1010.8 |
| 20260901012010 | 86 | 143 | 4.0 | 9.0 | 0.00 | 0.00 | 0.00 | 56 | 1010.7 |
| 20260901011510 | 86 | 109 | 5.0 | 9.0 | 0.00 | 0.00 | 0.00 | 55 | 1010.7 |
| 20260901011010 | 86 | 122 | 5.0 | 9.0 | 0.00 | 0.00 | 0.00 | 55 | 1010.6 |
| 20260901010510 | 86 | 73 | 4.0 | 10.0 | 0.00 | 0.00 | 0.00 | 55 | 1010.6 |
| 20260901010010 | 87 | 117 | 4.0 | 11.0 | 0.00 | 0.00 | 0.00 | 54 | 1010.6 |
| 20260901005509 | 87 | 116 | 6.0 | 11.0 | 0.00 | 0.00 | 0.00 | 54 | 1010.6 |
| 20260901005008 | 87 | 118 | 5.0 | 11.0 | 0.00 | 0.00 | 0.00 | 54 | 1010.6 |
| 20260901004510 | 88 | 81 | 4.0 | 11.0 | 0.00 | 0.00 | 0.00 | 53 | 1010.6 |
| 20260901004008 | 88 | 124 | 7.0 | 11.0 | 0.00 | 0.00 | 0.00 | 52 | 1010.5 |
| 20260901003508 | 89 | 137 | 7.0 | 13.0 | 0.00 | 0.00 | 0.00 | 51 | 1010.5 |
| 20260901003008 | 89 | 75 | 8.0 | 13.0 | 0.00 | 0.00 | 0.00 | 50 | 1010.4 |
| 20260901002508 | 90 | 151 | 6.0 | 10.0 | 0.00 | 0.00 | 0.00 | 50 | 1010.4 |
| 20260901002008 | 90 | 150 | 8.0 | 10.0 | 0.00 | 0.00 | 0.00 | 48 | 1010.4 |
| 20260901001511 | 91 | 130 | 3.0 | 10.0 | 0.00 | 0.00 | 0.00 | 48 | 1010.3 |
| 20260901001008 | 91 | 152 | 5.0 | 11.0 | 0.00 | 0.00 | 0.00 | 47 | 1010.2 |
| 20260901000508 | 91 | 144 | 5.0 | 11.0 | 0.00 | 0.00 | 0.00 | 46 | 1010.2 |
| 20260901000007 | 92 | 167 | 6.0 | 11.0 | 0.00 | 0.00 | 0.00 | 46 | 1010.2 |
| 20260831235506 | 92 | 146 | 4.0 | 12.0 | 0.00 | 0.00 | 0.00 | 45 | 1010.2 |
| 20260831235006 | 92 | 153 | 7.0 | 13.0 | 0.00 | 0.00 | 0.00 | 45 | 1010.2 |
| 20260831234506 | 92 | 118 | 2.0 | 12.0 | 0.00 | 0.00 | 0.00 | 46 | 1010.1 |
| 20260831234006 | 92 | 151 | 8.0 | 13.0 | 0.00 | 0.00 | 0.00 | 47 | 1010.1 |
| 20260831233509 | 92 | 175 | 8.0 | 13.0 | 0.00 | 0.00 | 0.00 | 46 | 1010.1 |
| 20260831233008 | 92 | 119 | 8.0 | 14.0 | 0.00 | 0.00 | 0.00 | 46 | 1010.1 |
| 20260831232507 | 92 | 126 | 9.0 | 14.0 | 0.00 | 0.00 | 0.00 | 46 | 1010.2 |
| 20260831232005 | 93 | 95 | 5.0 | 12.0 | 0.00 | 0.00 | 0.00 | 46 | 1010.1 |
| 20260831231504 | 93 | 166 | 7.0 | 17.0 | 0.00 | 0.00 | 0.00 | 46 | 1010.2 |
| 20260831231004 | 93 | 155 | 8.0 | 17.0 | 0.00 | 0.00 | 0.00 | 46 | 1010.1 |
| 20260831230507 | 93 | 121 | 8.0 | 17.0 | 0.00 | 0.00 | 0.00 | 47 | 1010.2 |
| 20260831230004 | 93 | 139 | 10.0 | 15.0 | 0.00 | 0.00 | 0.00 | 46 | 1010.2 |
| 20260831225504 | 93 | 144 | 8.0 | 13.0 | 0.00 | 0.00 | 0.00 | 46 | 1010.1 |
| 20260831225005 | 94 | 132 | 9.0 | 14.0 | 0.00 | 0.00 | 0.00 | 46 | 1010.1 |
| 20260831224502 | 93 | 144 | 5.0 | 14.0 | 0.00 | 0.00 | 0.00 | 47 | 1010.2 |
| 20260831224002 | 93 | 143 | 10.0 | 16.0 | 0.00 | 0.00 | 0.00 | 47 | 1010.3 |
| 20260831223502 | 93 | 164 | 11.0 | 17.0 | 0.00 | 0.00 | 0.00 | 47 | 1010.3 |
| 20260831223002 | 93 | 132 | 8.0 | 16.0 | 0.00 | 0.00 | 0.00 | 48 | 1010.2 |
| 20260831222500 | 92 | 123 | 8.0 | 16.0 | 0.00 | 0.00 | 0.00 | 48 | 1010.3 |
| 20260831222003 | 93 | 167 | 9.0 | 16.0 | 0.00 | 0.00 | 0.00 | 47 | 1010.3 |
| 20260831221629 | 93 | 155 | 11.0 | 16.0 | 0.00 | 0.00 | 0.00 | 46 | 1010.3 |
| 20260831221100 | 94 | 120 | 7.0 | 16.0 | 0.00 | 0.00 | 0.00 | 46 | 1010.4 |
| 20260831220600 | 94 | 105 | 8.0 | 14.0 | 0.00 | 0.00 | 0.00 | 47 | 1010.4 |
| 20260831220059 | 93 | 159 | 7.0 | 15.0 | 0.00 | 0.00 | 0.00 | 47 | 1010.3 |
| 20260831215557 | 93 | 141 | 10.0 | 15.0 | 0.00 | 0.00 | 0.00 | 48 | 1010.4 |
| 20260831215059 | 94 | 105 | 10.0 | 13.0 | 0.00 | 0.00 | 0.00 | 45 | 1010.6 |
| 20260831214558 | 94 | 93 | 7.0 | 17.0 | 0.00 | 0.00 | 0.00 | 46 | 1010.6 |
| 20260831214101 | 94 | 144 | 10.0 | 19.0 | 0.00 | 0.00 | 0.00 | 46 | 1010.6 |
| 20260831213556 | 94 | 175 | 10.0 | 19.0 | 0.00 | 0.00 | 0.00 | 47 | 1010.7 |
| 20260831213056 | 93 | 137 | 9.0 | 16.0 | 0.00 | 0.00 | 0.00 | 48 | 1010.6 |
| 20260831212557 | 93 | 98 | 9.0 | 16.0 | 0.00 | 0.00 | 0.00 | 48 | 1010.7 |
| 20260831212055 | 95 | 183 | 8.0 | 16.0 | 0.00 | 0.00 | 0.00 | 45 | 1010.8 |
| 20260831211555 | 97 | 121 | 8.0 | 13.0 | 0.00 | 0.00 | 0.00 | 44 | 1010.7 |
| 20260831211052 | 97 | 119 | 7.0 | 14.0 | 0.00 | 0.00 | 0.00 | 44 | 1010.9 |
| 20260831210554 | 96 | 211 | 6.0 | 14.0 | 0.00 | 0.00 | 0.00 | 44 | 1010.9 |
| 20260831210051 | 95 | 223 | 8.0 | 16.0 | 0.00 | 0.00 | 0.00 | 45 | 1011.0 |
| 20260831205551 | 95 | 101 | 8.0 | 16.0 | 0.00 | 0.00 | 0.00 | 44 | 1011.1 |
| 20260831205049 | 95 | 86 | 5.0 | 13.0 | 0.00 | 0.00 | 0.00 | 46 | 1011.1 |
| 20260831204549 | 95 | 150 | 8.0 | 13.0 | 0.00 | 0.00 | 0.00 | 45 | 1011.3 |
| 20260831204048 | 95 | 134 | 9.0 | 15.0 | 0.00 | 0.00 | 0.00 | 46 | 1011.3 |
| 20260831203547 | 94 | 140 | 6.0 | 16.0 | 0.00 | 0.00 | 0.00 | 48 | 1011.4 |
| 20260831203104 | 94 | 144 | 6.0 | 16.0 | 0.00 | 0.00 | 0.00 | 47 | 1011.5 |
| 20260831202545 | 94 | 150 | 7.0 | 19.0 | 0.00 | 0.00 | 0.00 | 49 | 1011.5 |
| 20260831202045 | 93 | 167 | 7.0 | 14.0 | 0.00 | 0.00 | 0.00 | 49 | 1011.7 |
| 20260831201553 | 93 | 148 | 10.0 | 13.0 | 0.00 | 0.00 | 0.00 | 50 | 1011.7 |
| 20260831201044 | 94 | 151 | 10.0 | 13.0 | 0.00 | 0.00 | 0.00 | 49 | 1011.8 |
| 20260831200544 | 94 | 186 | 6.0 | 10.0 | 0.00 | 0.00 | 0.00 | 49 | 1011.9 |
| 20260831200122 | 94 | 153 | 4.0 | 13.0 | 0.00 | 0.00 | 0.00 | 49 | 1012.0 |
| 20260831195544 | 94 | 149 | 8.0 | 13.0 | 0.00 | 0.00 | 0.00 | 48 | 1012.1 |
| 20260831195040 | 95 | 215 | 4.0 | 12.0 | 0.00 | 0.00 | 0.00 | 48 | 1012.1 |
| 20260831194539 | 95 | 159 | 5.0 | 14.0 | 0.00 | 0.00 | 0.00 | 49 | 1012.3 |
| 20260831194040 | 94 | 116 | 6.0 | 15.0 | 0.00 | 0.00 | 0.00 | 49 | 1012.2 |
| 20260831193537 | 95 | 181 | 8.0 | 16.0 | 0.00 | 0.00 | 0.00 | 47 | 1012.4 |
| 20260831193035 | 95 | 182 | 9.0 | 16.0 | 0.00 | 0.00 | 0.00 | 48 | 1012.4 |
| 20260831192538 | 95 | 134 | 6.0 | 12.0 | 0.00 | 0.00 | 0.00 | 48 | 1012.5 |
| 20260831192034 | 94 | 198 | 5.0 | 16.0 | 0.00 | 0.00 | 0.00 | 49 | 1012.5 |
| 20260831191530 | 94 | 203 | 9.0 | 17.0 | 0.00 | 0.00 | 0.00 | 50 | 1012.6 |
| 20260831191029 | 93 | 142 | 7.0 | 18.0 | 0.00 | 0.00 | 0.00 | 52 | 1012.6 |
| 20260831190532 | 92 | 171 | 7.0 | 16.0 | 0.00 | 0.00 | 0.00 | 53 | 1012.6 |
| 20260831190035 | 91 | 198 | 11.0 | 15.0 | 0.00 | 0.00 | 0.00 | 53 | 1012.6 |
| 20260831185530 | 92 | 198 | 8.0 | 13.0 | 0.00 | 0.00 | 0.00 | 51 | 1012.7 |
| 20260831185028 | 93 | 198 | 5.0 | 15.0 | 0.00 | 0.00 | 0.00 | 52 | 1012.7 |
| 20260831184527 | 93 | 169 | 4.0 | 11.0 | 0.00 | 0.00 | 0.00 | 52 | 1012.8 |
| 20260831184027 | 92 | 141 | 4.0 | 17.0 | 0.00 | 0.00 | 0.00 | 51 | 1012.8 |
| 20260831183529 | 92 | 211 | 6.0 | 15.0 | 0.00 | 0.00 | 0.00 | 52 | 1013.0 |
| 20260831183026 | 92 | 161 | 9.0 | 15.0 | 0.00 | 0.00 | 0.00 | 49 | 1013.1 |
| 20260831182526 | 91 | 70 | 7.0 | 16.0 | 0.00 | 0.00 | 0.00 | 53 | 1013.1 |
| 20260831182025 | 92 | 157 | 5.0 | 17.0 | 0.00 | 0.00 | 0.00 | 51 | 1013.1 |
| 20260831181529 | 92 | 202 | 8.0 | 13.0 | 0.00 | 0.00 | 0.00 | 53 | 1013.1 |
| 20260831181024 | 92 | 183 | 5.0 | 14.0 | 0.00 | 0.00 | 0.00 | 55 | 1013.2 |
| 20260831180524 | 91 | 130 | 6.0 | 14.0 | 0.00 | 0.00 | 0.00 | 55 | 1013.2 |
| 20260831180022 | 91 | 206 | 12.0 | 14.0 | 0.00 | 0.00 | 0.00 | 54 | 1013.3 |
| 20260831175522 | 91 | 180 | 6.0 | 18.0 | 0.00 | 0.00 | 0.00 | 54 | 1013.3 |
| 20260831175021 | 91 | 176 | 8.0 | 18.0 | 0.00 | 0.00 | 0.00 | 54 | 1013.3 |
| 20260831174521 | 90 | 190 | 4.0 | 15.0 | 0.00 | 0.00 | 0.00 | 56 | 1013.4 |
| 20260831174019 | 90 | 186 | 9.0 | 15.0 | 0.00 | 0.00 | 0.00 | 57 | 1013.5 |
| 20260831173519 | 90 | 227 | 8.0 | 14.0 | 0.00 | 0.00 | 0.00 | 56 | 1013.5 |
| 20260831173017 | 89 | 157 | 8.0 | 16.0 | 0.00 | 0.00 | 0.00 | 54 | 1013.5 |
| 20260831172516 | 89 | 175 | 9.0 | 16.0 | 0.00 | 0.00 | 0.00 | 55 | 1013.5 |
| 20260831172015 | 89 | 196 | 8.0 | 15.0 | 0.00 | 0.00 | 0.00 | 57 | 1013.5 |
| 20260831171515 | 88 | 155 | 8.0 | 15.0 | 0.00 | 0.00 | 0.00 | 60 | 1013.6 |
| 20260831171015 | 88 | 169 | 10.0 | 15.0 | 0.00 | 0.00 | 0.00 | 60 | 1013.6 |
| 20260831170514 | 88 | 190 | 7.0 | 15.0 | 0.00 | 0.00 | 0.00 | 60 | 1013.7 |
| 20260831170013 | 88 | 216 | 8.0 | 14.0 | 0.00 | 0.00 | 0.00 | 61 | 1013.7 |
| 20260831165512 | 88 | 209 | 7.0 | 14.0 | 0.00 | 0.00 | 0.00 | 62 | 1013.6 |
| 20260831165010 | 87 | 200 | 6.0 | 12.0 | 0.00 | 0.00 | 0.00 | 62 | 1013.7 |
| 20260831164517 | 87 | 191 | 6.0 | 13.0 | 0.00 | 0.00 | 0.00 | 62 | 1013.7 |
| 20260831164009 | 87 | 177 | 7.0 | 12.0 | 0.00 | 0.00 | 0.00 | 64 | 1013.7 |
| 20260831163509 | 86 | 187 | 5.0 | 14.0 | 0.00 | 0.00 | 0.00 | 66 | 1013.7 |